Regional Weather Roundup
Issued by NWS

Home | Current Version | Previous Version | Graphics & Text | Print | Product List | Glossary Off
Versions: 1 2 3 4 5 6 7 8 9 10 11 12 13 14 15 16 17 18 19 20 21 22 23 24 25 26 27 28 29 30 31 32 33 34 35 36 37 38 39 40 41 42 43 44 45 46 47 48 49 50

000
ASUS43 KDMX 251407
RWRIA

WEATHER ROUNDUP FOR IOWA
NATIONAL WEATHER SERVICE DES MOINES IA
800 AM CST SUN JAN 25 2015

NOTE: "FAIR" INDICATES FEW OR NO CLOUDS BELOW 12,000 FEET WITH NO
SIGNIFICANT WEATHER AND/OR OBSTRUCTIONS TO VISIBILITY.

* - THESE STATIONS ARE NOT NWS STATIONS...THUS NOT UNDER NWS
QUALITY CONTROL.  THEY ALSO DO NOT REPORT WEATHER SUCH
AS PRECIPITATION OR FOG.

IAZ001>003-012>014-020>022-031>034-043>046-251500-
   NORTHWEST IOWA

CITY           SKY/WX    TMP DP  RH WIND       PRES   REMARKS
CARROLL *      CLOUDY    34  34 100 N21G29    29.77R WCI  22
CHEROKEE *     CLOUDY    34  32  93 N14       29.86R WCI  24
DENISON *      LGT RAIN  34  34 100 N18G24    29.79R WCI  23
LE MARS *      CLOUDY    34  34 100 N10G17    29.90R WCI  26
ORANGE CITY *  CLOUDY    36  30  80 N10       29.88R WCI  28
SHELDON *      MIX PCPN  32  32 100 N20       29.87R WCI  20
SIOUX CITY     CLOUDY    36  32  85 N17       29.88R WCI  26
SPENCER        LGT SNOW  33  29  85 N18       29.87R FOG     WCI  22
STORM LAKE *   CLOUDY    32  32 100 N22G30    29.83R FOG     WCI  19
$$

IAZ055>058-069>071-079>083-090>094-251500-
   SOUTHWEST IOWA

CITY           SKY/WX    TMP DP  RH WIND       PRES   REMARKS
ATLANTIC *     CLOUDY    36  34  93 N21G30    29.75R WCI  24
AUDUBON *      MOCLDY    34  30  86 N22G28    29.76R WCI  22
CLARINDA *     MIX PCPN  36  34  93 NW21      29.75R WCI  24
COUNCIL BLFS * MIX PCPN  34  34 100 NW17G30   29.79R WCI  23
CRESTON *      CLOUDY    34  34 100 N17G24    29.68R WCI  23
HARLAN  *      LGT RAIN  34  34 100 N15G29    29.81R WCI  24
LAMONI         MIX PCPN  35  33  92 N15G22    29.64R WCI  25
RED OAK *      LGT RAIN  36  34  93 N21G28    29.76R WCI  24
SHENANDOAH *   LGT RAIN  36  34  93 NW20G25   29.78R WCI  25
$$

IAZ047>049-059>061-072>074-084-251500-
   CENTRAL IOWA

CITY           SKY/WX    TMP DP  RH WIND       PRES   REMARKS
AMES           LGT SNOW  33  31  92 NE16G24   29.73R FOG     WCI  23
ANKENY *       LGT SNOW  34  34 100 N15       29.71R WCI  24
CHARITON *     LGT RAIN  37  36  93 N17       29.64R WCI  28
DES MOINES     LGT SNOW  35  32  88 N16       29.70R VSB 1   WCI  25
GRINNELL*      LGT SNOW  32  32 100 NE17      29.69R WCI  21
KNOXVILLE *    CLOUDY    36  34  93 N15G22    29.64R WCI  26
MARSHALLTOWN   SNOW      33  31  92 NE18      29.73R VSB 1/2 WCI  22
PELLA *        RAIN      34  34 100 NE12G17   29.68R WCI  25
PERRY *        LGT RAIN  34  34 100 N16G22    29.74R WCI  23
$$

IAZ004>006-015-016-023>025-035-036-251500-
   NORTH CENTRAL IOWA

CITY           SKY/WX    TMP DP  RH WIND       PRES   REMARKS
ALGONA *       DRIZZLE   32  32 100 N20G26    29.83R WCI  20
CLARION *      CLOUDY    34  34 100 NE18      29.79R WCI  23
ESTHERVILLE    CLOUDY    30  29  96 N20G26    29.86R WCI  17
FORT DODGE *   CLOUDY    34  30  86 N13       29.80R WCI  25
MASON CITY     CLOUDY    32  30  92 N20       29.81R WCI  20
FOREST CITY *  CLOUDY    32  30  93 N17G24    29.82R WCI  21
IOWA FALLS *   LGT SNOW  32  32 100 NE15      29.77R WCI  22
$$

IAZ007>011-017>019-026>030-037>042-050>054-066-251500-
   NORTHEAST IOWA

CITY           SKY/WX    TMP DP  RH WIND       PRES   REMARKS
CEDAR RAPIDS   LGT SNOW  32  32 100 NE18      29.70R VSB 1   WCI  20
CHARLES CITY * LGT SNOW  32  32 100 NE15G23   29.80R WCI  22
CLINTON *      CLOUDY    30  28  93 NE24      29.74R WCI  16
DECORAH *      CLOUDY    27  25  93 NE14G22   29.81R WCI  15
DUBUQUE        LGT SNOW  26  24  92 NE22G30   29.76R VSB 3/4 WCI  12
MONTICELLO *   LGT SNOW  30  30 100 NE10G22   29.75R WCI  21
OELWEIN *      LGT SNOW  30  28  93 NE16G23   29.77R VSB 3/4 WCI  19
WATERLOO       LGT SNOW  33  32  96 NE14      29.76R FOG     WCI  23
$$

IAZ064-065-067-068-078-251500-
   EAST CENTRAL IOWA

CITY           SKY/WX    TMP DP  RH WIND       PRES   REMARKS
DAVENPORT      LGT SNOW  32  29  88 NE26G33   29.70R VSB 1   WCI  18
IOWA CITY      SNOW      33  31  92 NE18      29.71R VSB 1/2 WCI  22
MT. PLEASANT * LGT RAIN  34  34 100 NE15      29.63R WCI  24
MUSCATINE *    LGT SNOW  34  32  93 NE13G23   29.68R VSB 3/4 WCI  25
QUAD CITIES    LGT SNOW  33  30  88 NE17      29.68R VSB 3/4 WCI  22
$$

IAZ062-063-075>077-085>089-095>099-251500-
   SOUTHEAST IOWA

CITY           SKY/WX    TMP DP  RH WIND       PRES   REMARKS
BURLINGTON     LGT RAIN  37  37 100 NE14      29.61R FOG     WCI  28
FAIRFIELD *    MIX PCPN  36  34  93 NE16      29.63R WCI  26
FORT MADISON * LGT RAIN  39  39 100 NE8       29.61R WCI  34
KEOKUK *       CLOUDY    39  39 100 NE5       29.59R FOG
OSKALOOSA *    RAIN      34  34 100 NE15      29.65R WCI  24
CENTERVILLE *  MIX PCPN  37  37 100 N10       29.61R WCI  30
OTTUMWA        LGT RAIN  37  37 100 NE13      29.62R WCI  29
WASHINGTON *   SNOW      34  34 100 NE17      29.65R VSB 1/2 WCI  23
$$

ABBREVIATIONS USED IN REMARKS
   TC - TEMPERATURES IN CELSIUS
  WCI - WIND CHILL INDEX
   HX - HEAT INDEX
  VSB - VISIBILITY
$$



USA.gov is the U.S. government's official web portal to all federal, state and local government web resources and services.